sat.trackr.live / text

‹ back to catalog

STARLINK-34651

NORAD 64861 · 2025-152V

PAYLOAD ACTIVE UNKNOWN

§ Identity

Operator
Country
US
Launch date
2025-07-19
Launch site
AFWTR
Launch vehicle
Mass (kg)
RCS (m²)

Purposes: comms

External: N2YO · Heavens-Above · Gunter

§ Orbital elements

Epoch: 2026-09-20T12:42:20.975616Z

Period
93.91 min
Inclination
97.2849°
Eccentricity
0.0002075
Mean motion
15.33455664 rev/d
Perigee alt
464.1 km
Apogee alt
466.9 km
Semi-major
6,843.6 km
B*
3.7872e-4
RAAN
114.0365°
Arg perigee
84.0964°
Mean anomaly
276.0515°
Rev number
6,482

§ Raw data

STARLINK-346511 64861U 25152V   26263.52940944  .00012176  00000+0  37872-3 0  99922 64861  97.2849 114.0365 0002075  84.0964 276.0515 15.33455664 64829

JSON: /api/v1/satellites/64861 · /tle

For live sub-satellite position, see the globe view (requires WebGL).

§ Visibility from observer

Set your observer location to see the next 7 days of passes ≥ 10°. The values pass through the URL so the page stays shareable.

No JS? Fill the form by hand. The geolocation button needs JavaScript.